STARLINK-6126 (56124 NORAD) Tracking and Keplerian Element Data

This shows tracking and keplerian element data for the satellite.

Feedback or suggestion? Click here.




ElementValue
Catalog56124
NameSTARLINK-6126
Epoch Orbit656
Epoch Day127.25001157
Epoch Year2023
RAAN33.7124
Inclination43.0013
Eccentricity0.0001427
Argument of Perigee262.9912
Mean Anonmoly347.9445
Mean Motion15.488765
Decay Rate0.00072003
L11 56124U 23046AJ 23127.25001157 .00072003 00000+0 12976-2 0 9997
L22 56124 43.0013 33.7124 0001427 262.9912 347.9445 15.48876500 6563



Live tracking and technical data element details for STARLINK-6126 (NORAD 56124). STARLINK-6126 can be tracked NOW for your location showing map with azimuth and elevation plus other details from your city location.







IsCatalogInMostPopularTable: catalog: 56124, numindb: 3
Update: records affected: 1



GetName: 56124 STARLINK-6126

Hit Count: updated at: Sat, 03 Jun 2023 18:25:03 GMT